Regional Weather Roundup
Issued by NWS

Home | Current Version | Previous Version | Graphics & Text | Print | Product List | Glossary On
Versions: 1 2 3 4 5 6 7 8 9 10 11 12 13 14 15 16 17 18 19 20 21 22 23 24 25 26 27 28 29 30 31 32 33 34 35 36 37 38 39 40 41 42 43 44 45 46
000
ASUS45 KBOU 200810
RWRCO

WEATHER ROUNDUP FOR COLORADO
NATIONAL WEATHER SERVICE DENVER/BOULDER CO
100 AM MST TUE FEB 20 2018

NOTE: "FAIR" INDICATES FEW OR NO CLOUDS BELOW 12000 FEET WITH NO
SIGNIFICANT WEATHER AND/OR OBSTRUCTIONS TO VISIBILITY.

COZ001>005-013-030-031-200900-
...NORTHWEST COLORADO...

CITY           SKY/WX    TMP DP  RH WIND       PRES   REMARKS
CRAIG          CLOUDY     2  -3  80 W5        29.77R WCI  -8
HAYDEN         LGT SNOW   1  -4  78 W3        29.75R
MEEKER         LGT SNOW   6   1  80 CALM      29.73R
RANGELY        CLOUDY     6   0  76 NE14      29.81R WCI -10
RABBIT EARS PA LGT SNOW  -8 -13  77 W13       29.43R WCI -28
STEAMBOAT SPGS CLOUDY     1  -3  84 CALM      29.70R
WALDEN         CLOUDY    -6 -13  71 N13       29.57R WCI -25
$$

COZ006>008-011-200900-
...WEST CENTRAL VALLEYS...

CITY           SKY/WX    TMP DP  RH WIND       PRES   REMARKS
GRAND JUNCTION LGT SNOW  22  15  75 NE6       29.77R WCI  14
MONTROSE       MOCLDY    22  19  89 N3        29.73R
EAGLE          CLOUDY    17   9  70 NW9       29.65R WCI   6
RIFLE          CLOUDY    14  10  84 W9        29.75R WCI   2
DELTA          CLOUDY    26  21  81 W15       29.71R WCI  14
NUCLA          FLURRIES  25  19  80 W12       29.75R WCI  14
$$

COZ017>023-064>068-200900-
...SOUTHWEST COLORADO...

CITY           SKY/WX    TMP DP  RH WIND       PRES   REMARKS
DURANGO        CLOUDY    21  17  84 SW14      29.74R WCI   8
CORTEZ         FAIR      20  14  77 S9        29.77R WCI   9
PAGOSA SPRINGS NOT AVBL
TELLURIDE      CLOUDY    14   5  68 W9        29.64R WCI   2
WOLF CREEK PAS CLOUDY     1   0  92 SW28      29.51R WCI -23
$$

COZ009-010-012-014-032>034-037-058>063-200900-
...CENTRAL COLORADO...

CITY           SKY/WX    TMP DP  RH WIND       PRES   REMARKS
ASPEN          LGT SNOW  14  10  84 N7        29.57R VSB 3/4 WCI   4
BUENA VISTA    CLOUDY    20   8  58 W17G26    29.55R WCI   6
COPPER MTN     LGT SNOW   9  -4  56 S14G37    29.42R VSB 3/4 WCI  -8
BERTHOUD PASS  SNOW       0  -9  65 W28G51    29.36R VSB 1/2 WCI -26
COTTONWOOD PAS CLOUDY    18  12  79 NW8       29.50R WCI   7
GUNNISON       MOCLDY    19   7  59 W13       29.62R WCI   6
GRANBY         PTSUNNY   12   5  73 S9G16     29.51R WCI   0
KREMMLING      LGT SNOW  18  10  73 NW6       29.60R WCI   9
LEADVILLE      CLOUDY    10   5  80 SE8       29.46F WCI  -2
SALIDA         CLOUDY    24  14  65 W9        29.65R WCI  15
SUNLIGHT       MIX PCPN   0  -4  85 SW13G24   29.52R VSB 1   WCI -18
WILKERSON PASS LGT SNOW N/A N/A N/A SW21G30   29.46R
$$

COZ069>075-200900-
...SAN LUIS VALLEY/SANGRE DE CRISTO MOUNTAINS...

CITY           SKY/WX    TMP DP  RH WIND       PRES   REMARKS
ALAMOSA        CLOUDY    22  15  75 SW8       29.68R WCI  12
DEL NORTE      CLOUDY    21  10  63 SW10G18   29.64R WCI   9
LA VETA PASS   CLOUDY    16  10  79 SW31G53   29.63R HAZE    WCI  -5
SAGUACHE       CLOUDY    25  14  63 SW15G22   29.61R WCI  12
$$

COZ035-036-038>040-200900-
...NORTHERN COLORADO FRONT RANGE...

CITY           SKY/WX    TMP DP  RH WIND       PRES   REMARKS
DENVER INTL AP FLURRIES   2  -3  80 N16       29.76R WCI -18
AURORA         LGT SNOW   3  -1  85 N9        29.75R FOG     WCI -12
FRONT RANGE AP CLOUDY     5   2  85 N9        29.76R WCI  -9
ERIE MUNI ARPT LGT SNOW   4   0  83 N6        29.87R WCI  -7
BOULDER MUN AP CLOUDY     3   0  85 N3        29.79R
CENTENNIAL     LGT SNOW   4   1  88 N8        29.71R VSB 3/4 WCI  -9
BROOMFIELD     CLOUDY     3   0  85 N8        29.77R WCI -10
FORT COLLINS   CLOUDY     2  -3  80 NE7       29.82R WCI -11
LONGMONT       CLOUDY     6   0  77 NE7       29.84R WCI  -6
$$

COZ041-046-047-076>085-087-088-200900-
...PIKES PEAK/PALMER DIVIDE AND SOUTHERN FOOTHILLS...

CITY           SKY/WX    TMP DP  RH WIND       PRES   REMARKS
COLO. SPRINGS  CLOUDY    10   7  87 CALM      29.65S FOG
A. F. ACADEMY  MIX PCPN   8   2  78 N9        29.62R WCI  -6
SCHRIEVER AFB  NOT AVBL
CHEYENNE MTN   LGT SNOW  11  10  95 S8        29.55S WCI  -1
ELLICOTT         N/A    N/A N/A N/A N5          N/A
FALCON         FLURRIES   6   1  79 MISG      29.62R
FORT CARSON    LGT SNOW  12   8  84 N6        29.65S WCI   2
LIMON          FLURRIES   4   1  88 N14       29.71F WCI -14
MONUMENT HILL  FLURRIES   3   0  85 CALM      29.62R
CANON CITY     CLOUDY    19  16  86 E6        29.69R WCI  11
WALSENBURG     NOT AVBL
TRINIDAD       CLOUDY    15  12  88 N6        29.71R WCI   6
$$

COZ042>045-048>051-090-091-200900-
...NORTHEAST COLORADO...

CITY           SKY/WX    TMP DP  RH WIND       PRES   REMARKS
GREELEY ARPT   LGT SNOW   2  -3  80 N7        29.85R WCI -11
AKRON          CLOUDY     2  -2  83 N18       29.79F FOG     WCI -19
BURLINGTON     LGT SNOW   8   4  83 N12       29.82R FOG     WCI  -7
WRAY           FLURRIES   9   1  72 MISG      29.88S
YUMA           NOT AVBL
STERLING       LGT SNOW   3   0  85 N13       29.86R WCI -14
HOLYOKE        LGT SNOW   7   1  78 N14       29.89R WCI -10
FORT MORGAN    LGT SNOW   2  -3  77 N14       29.83F WCI -16
$$

COZ086-089-092>099-200900-
...SOUTHEAST COLORADO...

CITY           SKY/WX    TMP DP  RH WIND       PRES   REMARKS
PUEBLO         LGT SNOW  15  11  83 NE5       29.75R FOG     WCI   8
LA JUNTA       LGT SNOW  14   9  80 NE14      29.74F WCI  -1
LAMAR          FLURRIES  16   6  65 N17       29.82R WCI   0
SPRINGFIELD      N/A     14  13  95 N21G26    29.74R WCI  -4
$$




USA.gov is the U.S. government's official web portal to all federal, state and local government web resources and services.